Simultaneous Nadir Overpasses (SNOs) Predictions

Prediction of SNOs between METOP-B and NOAA-19 Satellite Orbit:

Table of predicted SNOs for the next 14.0 days since TLE Epoch: 12/20/2019
Index Date (METOP-B) Time (METOP-B) Lat,Lon (METOP-B) SZA (METOP-B ) Date (NOAA-19) Time (NOAA-19) Lat,Lon (NOAA-19) SZA (NOAA-19 ) Distance(km) Time Diff (sec)
1 12/28/2019 06:06:41 79.77, 108.58 103.58 12/28/2019 06:05:29 79.77, 107.24 103.49 26.50 72
2 12/28/2019 06:57:24 -79.71, -84.66 76.52 12/28/2019 06:56:21 -79.69, -84.56 76.55 3.01 63
3 12/28/2019 07:48:05 79.70, 82.56 103.47 12/28/2019 07:47:27 79.70, 82.54 103.46 0.59 38
4 12/28/2019 08:38:46 -79.70,-110.10 76.54 12/28/2019 08:38:22 -79.69,-110.15 76.55 1.01 24
5 12/28/2019 09:29:27 79.68, 57.12 103.45 12/28/2019 09:29:27 79.68, 57.25 103.45 2.61 0
6 12/28/2019 10:20:08 -79.68,-135.54 76.56 12/28/2019 10:20:22 -79.68,-135.45 76.56 2.17 14
7 12/28/2019 11:10:49 79.67, 31.67 103.43 12/28/2019 11:11:28 79.69, 31.66 103.45 1.80 39
8 12/28/2019 12:01:30 -79.67,-160.99 76.58 12/28/2019 12:02:23 -79.68,-161.03 76.56 1.58 53




NCC Satellite Simultaneous Nadir Overpasses (SNOs) Prediction Service
